Location: Sternwarte_Laufen
(47.9344°N, 12.9346°E)
Time: 01:04:09
(UTC+02:00)

Envisat - Pass Details

Date: 13 May 2026
Orbit: 761 x 763 km, 98.4° (Epoch: 7 June)

Event Time Altitude Azimuth Distance (km) Brightness Sun altitude
Rises 03:48:38 0° 15° (NNE) 3,236 7.5 -14.2°
Reaches altitude 10° 03:50:57 10° 16° (NNE) 2,305 6.6 -14.0°
Maximum altitude 03:56:02 79° 104° (ESE) 780 3.1 -13.4°
Enters shadow 04:00:30 13° 191° (S) 2,056 4.7 -12.9°
